sat.trackr.live / text

‹ back to catalog

STARLINK-11670 [DTC]

NORAD 64237 · 2025-119E

PAYLOAD ACTIVE UNKNOWN

§ Identity

Operator
Country
US
Launch date
2025-06-03
Launch site
AFETR
Launch vehicle
Mass (kg)
RCS (m²)

Purposes: comms

External: N2YO · Heavens-Above · Gunter

§ Orbital elements

Epoch: 2026-09-20T15:34:50.518848Z

Period
91.67 min
Inclination
43.0009°
Eccentricity
0.0002184
Mean motion
15.70866404 rev/d
Perigee alt
354.9 km
Apogee alt
357.9 km
Semi-major
6,734.6 km
B*
2.8606e-4
RAAN
114.2447°
Arg perigee
268.5375°
Mean anomaly
91.5242°
Rev number
7,590

§ Raw data

STARLINK-11670 [DTC]1 64237U 25119E   26263.64919582  .00036460  00000+0  28606-3 0  99962 64237  43.0009 114.2447 0002184 268.5375  91.5242 15.70866404 75909

JSON: /api/v1/satellites/64237 · /tle

For live sub-satellite position, see the globe view (requires WebGL).

§ Visibility from observer

Set your observer location to see the next 7 days of passes ≥ 10°. The values pass through the URL so the page stays shareable.

No JS? Fill the form by hand. The geolocation button needs JavaScript.